Location: Unspecified
(42.9300°N, 71.1866°W)
Time: 01:46:18
(UTC-04:00)

Cosmos 2058 - Visible Passes

Search period start: 01 August 2014 00:00
Search period end: 11 August 2014 00:00
Orbit: 572 x 593 km, 82.5° (Epoch: 30 July)

Date Brightness Start Highest point End Pass type
(mag) Time Alt. Az. Time Alt. Az. Time Alt. Az.
01 Aug 4.9 02:30:11 10° NNE 02:33:40 24° ENE 02:35:49 17° ESE visible
01 Aug 4.0 04:07:10 10° NNW 04:10:43 27° W 04:12:10 22° WSW visible
02 Aug 4.4 02:35:47 10° N 02:39:38 34° ENE 02:41:06 26° ESE visible
02 Aug 4.4 04:13:28 10° NW 04:16:29 19° W 04:17:27 18° WSW visible
03 Aug 3.7 02:41:29 10° N 02:45:34 47° ENE 02:46:25 41° ESE visible
03 Aug 4.8 04:20:03 10° NW 04:22:13 14° W 04:22:46 14° W visible
04 Aug 3.0 02:47:16 10° N 02:51:29 69° E 02:51:47 66° ESE visible
05 Aug 2.8 02:53:08 10° N 02:57:11 80° NW 02:57:11 80° NW visible
06 Aug 5.6 01:23:53 10° NE 01:25:41 12° ENE 01:26:15 12° ENE visible
06 Aug 3.3 02:59:04 10° NNW 03:02:37 51° WNW 03:02:37 51° WNW visible
07 Aug 5.3 01:28:56 10° NNE 01:31:43 17° ENE 01:31:43 17° ENE visible
07 Aug 3.9 03:05:06 10° NNW 03:08:04 34° WNW 03:08:04 34° WNW visible
08 Aug 5.0 01:34:20 10° NNE 01:37:12 23° ENE 01:37:12 23° ENE visible
08 Aug 4.5 03:11:13 10° NNW 03:13:34 24° WNW 03:13:34 24° WNW visible
09 Aug 4.7 01:39:54 10° N 01:42:42 28° NE 01:42:42 28° NE visible
09 Aug 4.9 03:17:29 10° NW 03:19:04 17° WNW 03:19:04 17° WNW visible
10 Aug 4.6 01:45:34 10° N 01:48:13 33° NNE 01:48:13 33° NNE visible
10 Aug 5.3 03:24:00 10° NW 03:24:36 12° WNW 03:24:36 12° WNW visible
